When you browse on this site, cookies collect data to enhance your experience and personalize the content and advertising you see.
Visit our Privacy Policy to learn more. By continuing to use the site, you agree to this use of cookies and data.
EN

Hourly Weather Peshchera

Today, 4 August, Tuesday

Time Temperature Precipitation Wind Pressure Humidity
00:00 +19°C° 0 mm 4 mps 718 mmHg 83%
01:00 +19°C° 0 mm 4 mps 718 mmHg 85%
02:00 +16°C° 0 mm 1 mps 717 mmHg 71%
03:00 +16°C° 0 mm 3 mps 717 mmHg 82%
04:00 +17°C° 0 mm 3 mps 716 mmHg 79%
05:00 +18°C° 0 mm 3 mps 717 mmHg 74%
06:00 +18°C° 0 mm 3 mps 717 mmHg 74%
07:00 +19°C° 0 mm 4 mps 717 mmHg 77%
08:00 +20°C° 0 mm 5 mps 717 mmHg 77%
09:00 +21°C° 0 mm 5 mps 718 mmHg 76%
10:00 +23°C° 0 mm 4 mps 718 mmHg 75%
11:00 +25°C° 0 mm 4 mps 718 mmHg 73%
12:00 +26°C° 0 mm 4 mps 718 mmHg 74%
13:00 +27°C° 0 mm 4 mps 718 mmHg 73%
14:00 +28°C° 0 mm 4 mps 718 mmHg 73%
15:00 +28°C° 0 mm 4 mps 717 mmHg 73%
16:00 +28°C° 0 mm 4 mps 717 mmHg 73%
17:00 +28°C° 0 mm 4 mps 717 mmHg 76%
18:00 +27°C° 0 mm 3 mps 717 mmHg 80%
19:00 +26°C° 0 mm 3 mps 717 mmHg 84%
20:00 +25°C° 0 mm 3 mps 717 mmHg 84%
21:00 +23°C° 0 mm 4 mps 717 mmHg 86%
22:00 +24°C° 0 mm 3 mps 717 mmHg 88%
23:00 +22°C° 0 mm 4 mps 717 mmHg 87%

Tomorrow, 5 August, Wednesday

Time Temperature Precipitation Wind Pressure Humidity
00:00 +21°C° 0 mm 3 mps 718 mmHg 87%
01:00 +21°C° 0 mm 3 mps 718 mmHg 88%
02:00 +21°C° 0 mm 3 mps 718 mmHg 86%
03:00 +21°C° 0 mm 3 mps 718 mmHg 84%
04:00 +20°C° 0 mm 3 mps 718 mmHg 82%
05:00 +20°C° 0 mm 3 mps 718 mmHg 82%
06:00 +20°C° 0 mm 2 mps 718 mmHg 83%
07:00 +21°C° 0 mm 2 mps 719 mmHg 84%
08:00 +23°C° 0 mm 2 mps 719 mmHg 82%
09:00 +24°C° 0 mm 2 mps 719 mmHg 81%
10:00 +25°C° 0 mm 2 mps 720 mmHg 83%
11:00 +26°C° 0 mm 2 mps 720 mmHg 80%
12:00 +27°C° 0 mm 1 mps 720 mmHg 79%
13:00 +27°C° 0.6 mm 1 mps 720 mmHg 82%
14:00 +27°C° 2.8 mm 4 mps 719 mmHg 85%
15:00 +26°C° 3.1 mm 4 mps 720 mmHg 90%
16:00 +25°C° 8.8 mm 4 mps 720 mmHg 92%
17:00 +24°C° 5.2 mm 2 mps 719 mmHg 92%
18:00 +25°C° 0.1 mm 4 mps 720 mmHg 93%
19:00 +25°C° 0.1 mm 4 mps 720 mmHg 86%
20:00 +23°C° 0 mm 4 mps 720 mmHg 87%
21:00 +22°C° 0 mm 5 mps 721 mmHg 87%
22:00 +21°C° 0 mm 4 mps 721 mmHg 89%
23:00 +21°C° 0 mm 4 mps 722 mmHg 88%

Day after tomorrow, 6 August, Thursday

Time Temperature Precipitation Wind Pressure Humidity
00:00 +20°C° 0 mm 3 mps 722 mmHg 84%
01:00 +19°C° 0 mm 3 mps 722 mmHg 84%
02:00 +19°C° 0 mm 3 mps 722 mmHg 85%
03:00 +19°C° 0 mm 2 mps 722 mmHg 85%
04:00 +18°C° 0 mm 2 mps 722 mmHg 83%
05:00 +18°C° 0 mm 2 mps 723 mmHg 80%
06:00 +19°C° 0 mm 2 mps 723 mmHg 77%
07:00 +19°C° 0 mm 2 mps 724 mmHg 82%
08:00 +20°C° 0 mm 2 mps 724 mmHg 86%
09:00 +23°C° 0 mm 2 mps 724 mmHg 80%
10:00 +24°C° 0 mm 2 mps 725 mmHg 74%
11:00 +25°C° 0 mm 2 mps 725 mmHg 74%
12:00 +26°C° 0 mm 2 mps 725 mmHg 74%
13:00 +26°C° 0 mm 2 mps 725 mmHg 74%
14:00 +27°C° 0 mm 3 mps 725 mmHg 71%
15:00 +27°C° 0 mm 4 mps 725 mmHg 71%
16:00 +27°C° 0 mm 4 mps 724 mmHg 70%
17:00 +26°C° 0 mm 4 mps 724 mmHg 74%
18:00 +26°C° 0 mm 3 mps 724 mmHg 80%
19:00 +25°C° 0 mm 3 mps 724 mmHg 84%
20:00 +24°C° 0 mm 3 mps 724 mmHg 86%
21:00 +22°C° 0 mm 3 mps 724 mmHg 87%
22:00 +21°C° 0 mm 2 mps 725 mmHg 87%
23:00 +22°C° 0 mm 1 mps 725 mmHg 86%

7 August, Friday

Time Temperature Precipitation Wind Pressure Humidity
00:00 +22°C° 0 mm 1 mps 725 mmHg 88%
01:00 +21°C° 0 mm 1 mps 725 mmHg 88%
02:00 +21°C° 0 mm 1 mps 725 mmHg 84%
03:00 +21°C° 0 mm 1 mps 725 mmHg 82%
04:00 +21°C° 0 mm 1 mps 725 mmHg 81%
05:00 +20°C° 0 mm 1 mps 725 mmHg 80%
06:00 +18°C° 0 mm 0 mps 725 mmHg 79%
07:00 +19°C° 0 mm 0 mps 725 mmHg 82%
08:00 +20°C° 0 mm 0 mps 725 mmHg 89%
09:00 +21°C° 0 mm 0 mps 726 mmHg 89%
10:00 +23°C° 0 mm 0 mps 726 mmHg 88%
11:00 +26°C° 0 mm 1 mps 726 mmHg 79%
12:00 +27°C° 0 mm 2 mps 726 mmHg 72%
13:00 +27°C° 0 mm 2 mps 726 mmHg 72%
14:00 +27°C° 0 mm 3 mps 726 mmHg 70%
15:00 +28°C° 0 mm 3 mps 725 mmHg 70%
16:00 +27°C° 0 mm 3 mps 725 mmHg 71%
17:00 +27°C° 0 mm 4 mps 725 mmHg 73%
18:00 +26°C° 0 mm 3 mps 724 mmHg 76%
19:00 +25°C° 0 mm 3 mps 724 mmHg 82%
20:00 +24°C° 0 mm 2 mps 724 mmHg 83%
21:00 +23°C° 0 mm 1 mps 724 mmHg 85%
22:00 +22°C° 0 mm 1 mps 724 mmHg 88%
23:00 +22°C° 0 mm 1 mps 724 mmHg 88%

8 August, Saturday

Time Temperature Precipitation Wind Pressure Humidity
00:00 +22°C° 0 mm 1 mps 724 mmHg 86%
01:00 +21°C° 0 mm 1 mps 724 mmHg 89%
02:00 +19°C° 0 mm 0 mps 724 mmHg 90%
03:00 +19°C° 0 mm 0 mps 724 mmHg 90%
04:00 +18°C° 0 mm 0 mps 723 mmHg 90%
05:00 +20°C° 0 mm 1 mps 723 mmHg 90%
06:00 +18°C° 0 mm 0 mps 723 mmHg 90%
07:00 +18°C° 0 mm 0 mps 724 mmHg 92%
08:00 +19°C° 0 mm 0 mps 724 mmHg 95%
09:00 +20°C° 0 mm 0 mps 724 mmHg 93%
10:00 +22°C° 0 mm 0 mps 724 mmHg 88%
11:00 +25°C° 0 mm 1 mps 724 mmHg 86%
12:00 +26°C° 0 mm 3 mps 724 mmHg 81%
13:00 +25°C° 0 mm 5 mps 723 mmHg 87%
14:00 +25°C° 0 mm 5 mps 723 mmHg 84%
15:00 +25°C° 0 mm 4 mps 723 mmHg 81%
16:00 +25°C° 0 mm 4 mps 722 mmHg 82%
17:00 +25°C° 0 mm 3 mps 722 mmHg 80%
18:00 +25°C° 0 mm 3 mps 722 mmHg 82%
19:00 +24°C° 0 mm 3 mps 721 mmHg 86%
20:00 +21°C° 0 mm 2 mps 721 mmHg 88%
21:00 +20°C° 0 mm 2 mps 721 mmHg 86%
22:00 +20°C° 0 mm 2 mps 721 mmHg 84%
23:00 +19°C° 0 mm 2 mps 721 mmHg 84%

9 August, Sunday

Time Temperature Precipitation Wind Pressure Humidity
00:00 +18°C° 0 mm 2 mps 721 mmHg 89%
01:00 +18°C° 0 mm 2 mps 721 mmHg 92%
02:00 +17°C° 0 mm 2 mps 721 mmHg 91%
03:00 +17°C° 0 mm 2 mps 720 mmHg 90%
04:00 +18°C° 0 mm 1 mps 720 mmHg 88%
05:00 +18°C° 0 mm 1 mps 720 mmHg 88%
06:00 +18°C° 0 mm 1 mps 720 mmHg 88%
07:00 +18°C° 0 mm 1 mps 721 mmHg 91%
08:00 +19°C° 0 mm 1 mps 721 mmHg 93%
09:00 +21°C° 0 mm 1 mps 721 mmHg 90%
10:00 +22°C° 0 mm 1 mps 722 mmHg 86%
11:00 +21°C° 0 mm 0 mps 721 mmHg 83%
12:00 +22°C° 0 mm 0 mps 721 mmHg 80%
13:00 +25°C° 0 mm 1 mps 721 mmHg 76%
14:00 +25°C° 0 mm 1 mps 720 mmHg 76%
15:00 +25°C° 0 mm 1 mps 720 mmHg 76%
16:00 +25°C° 0 mm 1 mps 720 mmHg 76%
17:00 +23°C° 0.1 mm 0 mps 720 mmHg 77%
18:00 +24°C° 0 mm 2 mps 719 mmHg 81%
19:00 +23°C° 0 mm 2 mps 719 mmHg 87%
20:00 +23°C° 0 mm 2 mps 719 mmHg 89%
21:00 +21°C° 0 mm 2 mps 719 mmHg 89%
22:00 +20°C° 0 mm 2 mps 720 mmHg 88%
23:00 +20°C° 0 mm 2 mps 720 mmHg 86%
Show more